TimeEDT,TemperatureF,Dew PointF,Humidity,Sea Level PressureIn,VisibilityMPH,Wind Direction,Wind SpeedMPH,Gust SpeedMPH,PrecipitationIn,Events,Conditions,WindDirDegrees,DateUTC
12:15 AM,57.9,53.1,84,30.00,10.0,NE,3.5,-,N/A,,Clear,50,2013-05-13 04:15:00
12:35 AM,57.4,52.2,83,30.01,10.0,Calm,Calm,-,N/A,,Scattered Clouds,0,2013-05-13 04:35:00
12:55 AM,58.8,52.9,81,30.01,10.0,Calm,Calm,-,N/A,,Scattered Clouds,0,2013-05-13 04:55:00
1:15 AM,60.3,53.6,79,30.01,10.0,NE,4.6,-,N/A,,Mostly Cloudy,40,2013-05-13 05:15:00
1:35 AM,61.5,53.4,75,30.01,10.0,NE,9.2,-,N/A,,Scattered Clouds,40,2013-05-13 05:35:00
1:55 AM,61.2,50.5,68,30.01,10.0,NE,12.7,17.3,N/A,,Clear,50,2013-05-13 05:55:00
2:15 AM,61.0,46.6,59,30.01,10.0,NE,9.2,-,N/A,,Clear,50,2013-05-13 06:15:00
2:35 AM,60.3,47.7,63,30.02,10.0,ENE,15.0,18.4,N/A,,Clear,60,2013-05-13 06:35:00
2:55 AM,60.4,47.1,61,30.01,10.0,NE,15.0,18.4,N/A,,Clear,50,2013-05-13 06:55:00
3:15 AM,60.3,45.7,59,30.02,10.0,NE,11.5,20.7,N/A,,Scattered Clouds,50,2013-05-13 07:15:00
3:35 AM,60.1,45.9,59,30.02,10.0,NE,12.7,19.6,N/A,,Scattered Clouds,40,2013-05-13 07:35:00
3:55 AM,59.5,45.9,61,30.02,10.0,NE,12.7,20.7,N/A,,Clear,50,2013-05-13 07:55:00
4:15 AM,59.4,45.5,60,30.03,10.0,NE,15.0,21.9,N/A,,Clear,50,2013-05-13 08:15:00
4:35 AM,59.2,44.6,58,30.03,10.0,NE,16.1,21.9,N/A,,Scattered Clouds,50,2013-05-13 08:35:00
4:55 AM,59.4,45.3,60,30.03,10.0,NE,15.0,-,N/A,,Mostly Cloudy,50,2013-05-13 08:55:00
5:15 AM,59.2,44.8,59,30.04,10.0,NE,12.7,19.6,N/A,,Overcast,50,2013-05-13 09:15:00
5:35 AM,59.2,43.9,57,30.04,10.0,NE,11.5,-,N/A,,Overcast,50,2013-05-13 09:35:00
5:55 AM,59.2,44.4,58,30.05,10.0,NE,16.1,21.9,N/A,,Overcast,50,2013-05-13 09:55:00
6:15 AM,59.4,42.1,53,30.06,10.0,NE,13.8,20.7,N/A,,Overcast,40,2013-05-13 10:15:00
6:35 AM,59.2,41.7,52,30.06,10.0,NE,12.7,18.4,N/A,,Overcast,40,2013-05-13 10:35:00
6:55 AM,59.4,43.0,55,30.09,10.0,NE,10.4,-,N/A,,Mostly Cloudy,50,2013-05-13 10:55:00
7:15 AM,59.2,41.2,51,30.07,10.0,NE,15.0,21.9,N/A,,Mostly Cloudy,40,2013-05-13 11:15:00
7:35 AM,59.5,42.3,53,30.07,10.0,NE,11.5,20.7,N/A,,Scattered Clouds,40,2013-05-13 11:35:00
7:55 AM,60.3,41.9,51,30.06,10.0,NE,18.4,25.3,N/A,,Scattered Clouds,50,2013-05-13 11:55:00
8:15 AM,60.1,37.9,44,30.08,10.0,NE,17.3,-,N/A,,Mostly Cloudy,50,2013-05-13 12:15:00
8:35 AM,60.8,39.4,45,30.09,10.0,NE,15.0,21.9,N/A,,Mostly Cloudy,50,2013-05-13 12:35:00
8:55 AM,59.7,41.9,52,30.09,10.0,NE,15.0,20.7,N/A,,Overcast,40,2013-05-13 12:55:00
9:15 AM,59.5,41.5,51,30.09,10.0,NE,16.1,23.0,N/A,,Overcast,50,2013-05-13 13:15:00
9:35 AM,60.4,40.3,47,30.09,10.0,NNE,16.1,23.0,N/A,,Mostly Cloudy,30,2013-05-13 13:35:00
9:55 AM,60.8,38.1,43,30.09,10.0,NE,16.1,21.9,N/A,,Scattered Clouds,40,2013-05-13 13:55:00
10:15 AM,61.5,40.1,45,30.09,10.0,NE,16.1,20.7,N/A,,Mostly Cloudy,40,2013-05-13 14:15:00
10:35 AM,60.1,38.8,45,30.10,10.0,NE,13.8,-,N/A,,Mostly Cloudy,40,2013-05-13 14:35:00
10:55 AM,61.2,40.3,46,30.09,10.0,NNE,13.8,21.9,N/A,,Mostly Cloudy,30,2013-05-13 14:55:00
11:15 AM,59.9,38.5,45,30.10,10.0,NNE,13.8,21.9,N/A,,Mostly Cloudy,30,2013-05-13 15:15:00
11:35 AM,60.4,36.7,41,30.10,10.0,NE,12.7,20.7,N/A,,Mostly Cloudy,50,2013-05-13 15:35:00
11:55 AM,61.3,35.4,38,30.09,10.0,NE,13.8,20.7,N/A,,Mostly Cloudy,40,2013-05-13 15:55:00
12:15 PM,61.2,34.2,36,30.09,10.0,NNE,16.1,19.6,N/A,,Scattered Clouds,30,2013-05-13 16:15:00
12:35 PM,61.9,36.9,39,30.09,10.0,NNE,13.8,19.6,N/A,,Scattered Clouds,30,2013-05-13 16:35:00
12:55 PM,62.4,36.5,38,30.09,10.0,NE,12.7,20.7,N/A,,Mostly Cloudy,50,2013-05-13 16:55:00
1:15 PM,61.0,33.4,36,30.09,10.0,NE,12.7,18.4,N/A,,Overcast,40,2013-05-13 17:15:00
1:35 PM,62.2,38.5,41,30.08,10.0,NE,13.8,18.4,N/A,,Scattered Clouds,50,2013-05-13 17:35:00
1:55 PM,62.4,37.2,39,30.07,10.0,ENE,13.8,17.3,N/A,,Scattered Clouds,60,2013-05-13 17:55:00
2:15 PM,62.1,38.7,42,30.07,10.0,NNE,12.7,21.9,N/A,,Clear,20,2013-05-13 18:15:00
2:35 PM,62.4,38.5,41,30.06,10.0,NNE,12.7,-,N/A,,Clear,30,2013-05-13 18:35:00
2:55 PM,61.9,39.6,44,30.06,10.0,NNE,11.5,18.4,N/A,,Clear,30,2013-05-13 18:55:00
3:15 PM,61.2,39.0,44,30.04,10.0,NNE,13.8,20.7,N/A,,Clear,20,2013-05-13 19:15:00
3:35 PM,61.5,40.5,46,30.04,10.0,NNE,9.2,-,N/A,,Clear,30,2013-05-13 19:35:00
4:35 PM,61.7,39.9,45,30.03,10.0,NE,13.8,-,N/A,,Clear,50,2013-05-13 20:35:00
4:55 PM,61.3,39.7,45,30.03,10.0,NE,11.5,16.1,N/A,,Clear,40,2013-05-13 20:55:00
5:15 PM,60.6,39.2,45,30.03,10.0,ENE,13.8,-,N/A,,Clear,70,2013-05-13 21:15:00
5:35 PM,59.9,39.0,46,30.03,10.0,ENE,10.4,-,N/A,,Clear,60,2013-05-13 21:35:00
5:55 PM,59.4,39.2,47,30.03,10.0,NE,11.5,-,N/A,,Clear,50,2013-05-13 21:55:00
6:15 PM,59.2,39.4,48,30.03,10.0,NE,9.2,-,N/A,,Clear,40,2013-05-13 22:15:00
6:35 PM,58.8,39.6,49,30.03,10.0,NE,10.4,-,N/A,,Clear,50,2013-05-13 22:35:00
6:55 PM,58.1,39.4,50,30.04,10.0,NE,8.1,-,N/A,,Clear,50,2013-05-13 22:55:00
7:35 PM,56.8,39.7,53,30.05,10.0,NE,6.9,-,N/A,,Scattered Clouds,50,2013-05-13 23:35:00
8:15 PM,55.2,40.1,57,30.07,10.0,ENE,5.8,-,N/A,,Scattered Clouds,60,2013-05-14 00:15:00
8:35 PM,54.1,40.5,60,30.08,10.0,ENE,6.9,-,N/A,,Clear,70,2013-05-14 00:35:00
8:55 PM,54.7,40.1,58,30.09,10.0,East,4.6,-,N/A,,Clear,80,2013-05-14 00:55:00
9:15 PM,54.3,40.1,59,30.10,10.0,Calm,Calm,-,N/A,,Clear,0,2013-05-14 01:15:00
9:35 PM,53.6,39.6,59,30.11,10.0,ENE,3.5,-,N/A,,Clear,60,2013-05-14 01:35:00
9:55 PM,54.7,40.1,58,30.11,10.0,East,3.5,-,N/A,,Scattered Clouds,80,2013-05-14 01:55:00
10:15 PM,52.5,41.2,65,30.13,10.0,Calm,Calm,-,N/A,,Scattered Clouds,0,2013-05-14 02:15:00
10:35 PM,53.4,41.7,65,30.13,10.0,East,5.8,-,N/A,,Mostly Cloudy,90,2013-05-14 02:35:00
10:55 PM,53.6,40.8,62,30.14,10.0,Calm,Calm,-,N/A,,Clear,0,2013-05-14 02:55:00
11:15 PM,53.4,41.7,65,30.14,10.0,Calm,Calm,-,N/A,,Mostly Cloudy,0,2013-05-14 03:15:00
11:35 PM,54.5,41.5,62,30.15,10.0,Calm,Calm,-,N/A,,Mostly Cloudy,0,2013-05-14 03:35:00
11:55 PM,51.4,42.4,71,30.14,10.0,Calm,Calm,-,N/A,,Clear,0,2013-05-14 03:55:00